Theta_e
342 346 345 347 349 350 350 351 350 351 350 349 350 350 350 350 349 349 349 349 348 347 348 348 347 345 349 347 347 347 347 346 345 345 345 344 343 343 342 341 343 345 346 346 345 345 345 344 343 344 345 343 345 339 342 338 337 336 334 334 335 334
340 343 348 346 347 348 350 350 349 348 349 350 350 350 350 349 350 349 349 348 347 347 346 346 347 348 345 346 347 347 346 345 345 345 344 343 342 342 341 342 342 342 345 345 345 342 343 343 344 344 344 345 340 339 346 339 336 335 335 334 335 335
340 342 345 347 346 348 348 348 347 348 348 349 349 349 348 348 347 347 347 347 348 347 346 346 346 346 346 347 346 346 345 345 344 344 343 342 342 342 341 340 342 342 343 345 343 344 342 343 342 343 344 342 340 342 343 336 336 335 334 334 333 337
341 342 344 345 347 346 346 346 347 347 348 348 347 347 346 347 346 346 346 347 348 347 346 349 346 347 346 344 345 346 345 344 344 343 343 341 341 340 340 341 340 342 340 339 339 343 342 342 342 343 341 342 343 344 338 338 336 335 334 335 333 340
343 344 344 345 346 346 346 344 344 345 346 344 345 345 346 346 346 346 346 349 345 348 346 346 346 345 344 343 342 341 342 341 341 341 341 338 337 337 338 336 336 337 335 336 337 339 342 342 344 343 342 343 341 336 334 338 336 335 334 334 335 340
343 344 345 345 346 346 348 344 342 342 344 342 342 345 346 347 347 347 347 350 346 347 346 344 345 343 344 343 341 341 341 341 341 340 338 338 336 335 334 334 335 334 334 337 336 342 341 341 342 343 342 341 333 334 334 340 339 337 335 335 336 338
342 344 345 346 343 343 342 344 344 342 342 340 344 343 343 345 346 347 348 349 348 346 345 344 344 344 343 343 342 341 341 341 340 339 336 338 335 336 334 336 334 334 334 335 338 339 341 340 338 337 338 334 336 338 339 343 339 337 336 336 338 342
341 344 343 344 341 341 342 341 342 344 339 339 344 341 341 344 345 348 348 349 349 348 345 342 342 342 341 342 340 341 342 341 340 337 336 338 336 336 335 337 336 336 337 339 337 334 335 337 337 339 334 333 336 338 338 339 339 337 337 337 338 341
343 344 343 343 340 340 340 341 342 338 336 340 341 342 342 345 345 346 347 345 344 348 345 342 341 340 340 339 339 340 339 338 337 335 335 339 337 336 336 343 342 339 340 338 337 334 335 337 338 334 331 335 337 339 338 338 341 339 338 338 338 340
342 343 342 341 339 338 339 340 340 338 338 342 338 345 345 343 347 346 341 341 345 345 346 341 340 340 339 341 346 347 344 345 343 343 343 341 343 344 342 341 341 340 335 337 338 337 338 334 334 333 336 336 338 338 338 340 341 339 338 338 339 340
344 343 342 340 339 339 340 339 340 339 339 344 345 345 345 345 344 341 340 342 342 340 343 344 341 346 344 344 344 344 345 344 342 344 343 341 344 344 341 342 340 341 343 338 338 341 337 331 333 337 339 336 335 337 337 340 341 342 340 338 338 338
343 340 340 340 339 341 340 341 342 340 339 344 344 344 343 343 341 339 340 340 341 341 345 341 345 345 344 342 343 343 344 342 343 343 345 343 344 344 343 341 345 348 347 345 344 342 340 334 333 337 336 335 336 338 337 339 342 342 340 338 338 337
342 341 341 340 340 342 342 340 339 341 343 345 345 344 342 341 341 339 339 340 340 342 342 341 345 342 340 342 345 344 342 343 345 344 344 344 345 344 344 346 344 345 345 344 344 342 335 333 336 336 336 336 339 337 338 339 340 340 339 338 338 337
342 340 340 342 343 343 345 342 341 344 345 344 343 343 341 340 343 342 340 338 343 343 341 343 343 341 338 336 338 339 340 342 345 345 347 346 344 344 342 342 340 340 340 341 341 340 335 331 337 337 339 340 338 338 338 338 338 338 339 337 336 335
341 339 341 343 343 344 345 343 343 343 344 344 342 340 340 340 341 341 342 342 343 343 342 343 343 342 341 339 337 335 336 341 344 346 346 346 346 342 344 340 340 342 340 339 340 339 336 333 335 334 338 339 337 338 338 337 337 337 337 336 335 334
341 340 341 343 344 344 345 345 344 344 344 344 340 337 339 340 339 341 342 342 343 343 342 342 342 343 341 339 338 337 341 341 344 349 348 348 346 344 341 346 343 341 339 335 334 336 333 333 334 334 336 337 337 337 337 337 337 337 337 336 336 335
340 341 342 343 343 343 344 344 343 341 341 343 339 338 339 338 338 340 341 344 343 341 342 341 340 341 340 339 338 342 344 342 341 337 340 344 344 347 345 342 342 340 341 335 334 333 334 333 333 335 336 336 337 336 336 336 337 337 337 335 335 336
341 341 342 341 342 342 343 343 343 340 339 341 338 337 337 338 338 340 341 340 342 340 340 339 338 341 339 341 342 342 340 340 339 338 336 337 342 341 343 346 344 343 339 338 338 332 335 333 334 336 335 335 335 337 336 335 335 336 336 336 335 334
341 341 341 341 342 342 341 342 342 341 341 340 337 337 339 340 340 339 339 340 341 341 340 339 340 340 340 341 341 340 340 339 338 337 338 336 337 341 343 343 342 339 338 337 338 337 336 334 333 335 335 335 336 334 335 337 334 335 334 334 334 335
341 342 341 338 337 339 339 337 337 338 337 338 338 336 336 338 339 339 339 339 340 341 339 338 340 341 341 340 337 338 340 335 337 336 334 334 333 340 342 341 341 340 336 336 339 341 339 335 334 333 332 334 335 335 335 336 334 333 334 334 334 334
340 341 339 337 337 337 336 336 337 335 335 337 335 336 336 336 337 339 339 339 340 340 339 338 340 342 342 341 339 340 339 335 337 335 334 332 336 338 343 342 340 340 336 333 335 338 338 335 329 329 332 331 332 333 334 334 332 332 334 334 335 333
336 339 339 339 339 338 338 336 336 334 335 336 335 335 334 336 338 339 338 339 340 341 341 340 341 342 342 339 339 337 337 336 337 336 334 334 334 338 342 343 340 336 338 333 334 339 338 332 328 327 324 323 327 328 331 331 333 333 331 331 333 332
338 338 338 340 339 337 339 338 337 337 338 333 336 338 337 337 339 338 338 337 338 339 340 341 342 342 341 340 338 337 336 336 337 335 334 331 336 339 341 340 338 337 334 336 335 338 338 334 327 329 328 324 320 319 325 329 330 331 331 331 332 332
338 339 339 339 339 341 341 340 336 335 335 335 334 337 337 338 337 337 336 337 337 338 339 341 341 340 341 338 338 336 336 337 332 337 336 334 338 335 339 339 338 338 337 329 330 333 337 335 330 328 320 321 321 320 316 320 323 328 332 330 330 331
339 339 339 340 340 339 338 337 338 337 334 334 336 335 334 333 335 335 336 336 335 337 339 342 341 340 337 338 337 337 337 338 338 337 337 339 338 336 335 336 337 335 335 333 328 334 334 337 335 335 325 321 319 317 318 321 324 323 330 328 329 332
338 339 338 339 339 338 336 335 334 332 331 329 328 329 328 329 330 331 334 338 337 338 339 338 341 339 336 337 336 337 336 334 339 339 340 337 338 337 336 336 336 337 335 335 332 331 331 335 334 334 335 333 328 323 320 323 321 315 327 328 328 330
336 337 338 338 338 337 336 336 335 333 333 331 330 331 334 335 335 336 337 337 339 339 338 336 335 336 336 336 335 334 335 336 336 340 339 338 336 336 335 335 338 337 335 335 335 330 330 331 333 334 336 335 334 334 331 323 318 320 316 322 327 327
335 335 337 338 336 335 334 334 334 334 333 332 332 332 334 335 336 336 334 336 336 337 337 335 333 334 334 334 336 336 337 339 339 337 337 338 339 339 341 337 339 338 338 336 335 331 329 331 329 330 332 332 333 333 331 329 326 323 319 316 319 327
334 334 337 338 335 336 335 334 335 334 332 333 334 334 334 334 333 334 332 334 334 335 335 335 334 333 334 336 336 335 338 338 341 338 336 339 340 336 339 337 337 337 336 336 335 335 333 331 331 327 330 330 329 329 330 330 329 328 323 318 318 320
334 334 337 337 337 337 336 336 335 334 333 332 333 334 333 333 332 333 331 332 332 331 331 333 335 335 335 336 337 338 337 336 337 335 335 336 337 336 338 339 338 337 336 335 335 335 334 334 333 329 331 330 328 325 325 324 326 326 324 325 318 318
335 335 336 336 337 337 337 337 335 334 334 333 332 332 331 330 331 332 329 329 330 330 330 331 336 337 337 335 336 336 336 336 337 337 333 333 334 335 336 337 337 337 337 336 334 334 334 336 335 333 332 329 327 326 324 323 324 326 324 321 320 320
334 334 334 336 336 336 336 336 336 335 335 334 333 332 331 330 330 330 329 328 330 329 330 335 337 337 337 337 337 337 337 335 335 338 333 335 332 333 333 334 335 335 335 337 337 335 335 333 333 332 332 330 328 329 329 328 327 326 324 323 323 320
332 332 333 335 335 335 335 335 336 336 336 336 336 334 335 333 333 331 331 330 330 330 332 333 334 334 337 337 337 336 336 336 337 340 336 334 335 338 333 331 333 333 334 334 335 336 334 333 332 331 331 333 332 331 331 333 331 328 329 327 325 319
332 333 333 334 335 334 335 335 336 335 336 336 336 335 334 334 334 333 332 332 332 332 332 332 333 333 334 335 336 338 337 334 336 334 334 335 335 334 335 330 332 334 333 337 336 336 335 334 333 333 334 332 331 331 332 334 332 332 328 326 324 323
333 334 334 334 334 334 335 335 335 335 335 335 336 337 336 335 333 333 334 333 333 332 332 332 333 333 336 334 334 335 334 334 333 333 333 334 334 333 333 330 331 333 335 339 337 335 334 333 334 332 332 332 332 332 332 333 332 330 329 325 325 323
334 335 335 334 334 335 335 335 335 335 334 335 333 333 332 334 335 335 334 333 333 334 334 334 332 333 333 332 333 333 333 332 331 332 334 334 333 333 334 331 331 333 331 333 335 334 333 334 333 335 333 333 330 330 332 332 332 330 328 327 328 328
334 333 334 335 335 334 335 335 335 335 335 334 332 332 333 333 337 337 335 335 333 335 335 333 332 333 333 333 333 333 331 331 332 333 333 334 333 333 333 330 331 331 330 332 331 330 332 332 332 334 334 333 330 332 331 333 329 330 336 330 328 327
Wind_Speed
14 11 9 8 7 7 8 10 8 10 12 12 11 13 13 12 11 11 12 12 10 8 7 7 9 9 12 9 8 11 12 11 10 10 8 7 7 7 8 6 6 5 5 8 6 5 2 3 4 5 6 7 8 5 5 5 9 8 7 6 7 7
14 13 11 10 8 7 8 9 7 8 9 9 10 11 10 8 10 8 11 9 6 6 6 6 6 10 7 9 10 12 11 11 9 9 8 7 6 7 7 5 5 5 6 6 8 4 2 3 5 6 7 8 5 3 2 4 8 8 8 7 6 6
16 17 17 13 9 8 8 6 8 8 8 10 10 10 8 8 7 8 8 7 5 4 5 5 5 8 7 11 10 11 11 10 8 7 7 6 6 5 5 5 5 5 4 5 4 3 4 2 2 5 6 4 4 5 2 9 9 8 8 7 5 9
8 9 13 12 11 10 8 7 6 6 6 7 8 7 6 6 6 7 7 4 4 4 3 3 9 13 11 7 7 8 10 10 9 7 7 5 5 4 4 3 3 4 3 3 4 4 4 4 3 2 3 4 4 1 6 4 8 7 6 8 7 9
8 7 10 12 13 11 9 8 7 7 7 6 6 6 5 5 4 6 6 3 5 2 3 3 4 5 6 7 7 6 6 5 5 4 6 3 3 3 2 2 2 3 3 4 5 3 2 4 2 3 4 4 9 12 8 8 7 6 6 7 6 7
8 7 8 9 11 11 10 8 7 6 6 6 5 4 4 3 2 3 3 1 5 3 3 4 4 6 6 6 7 6 6 5 5 5 6 3 4 4 3 4 3 2 3 3 5 2 3 4 2 1 3 10 9 4 5 1 6 7 7 6 5 7
7 7 8 8 10 10 8 5 3 5 4 5 4 4 3 3 2 3 3 2 2 3 3 3 4 5 6 5 5 6 7 6 5 5 6 4 4 5 4 4 5 4 3 5 2 1 1 3 4 2 5 12 5 2 1 2 5 7 6 6 5 5
6 6 6 7 9 9 6 5 3 5 10 5 4 6 2 2 3 2 2 3 2 2 3 4 5 5 5 4 7 7 7 7 7 5 6 5 5 4 5 3 5 5 3 0 1 3 2 3 2 1 14 7 5 6 1 2 3 7 7 6 5 6
9 8 7 7 8 7 7 6 5 7 9 8 7 7 5 3 3 3 2 2 2 2 2 3 4 5 6 7 6 6 6 6 6 6 7 6 6 5 6 3 3 2 1 2 2 4 3 1 2 10 10 7 6 5 3 2 2 6 7 6 5 7
10 8 9 8 7 7 6 7 6 6 8 7 5 5 7 4 0 3 3 1 1 2 3 3 4 5 6 5 3 2 3 1 2 3 4 1 1 2 3 2 2 2 3 2 0 2 1 5 14 8 5 6 5 5 3 3 3 6 7 6 6 6
10 10 8 7 9 9 8 8 7 7 7 5 7 6 6 5 3 3 3 2 0 1 4 6 3 1 2 1 1 3 2 2 3 1 3 3 3 2 3 2 3 2 0 1 2 0 5 12 6 5 6 4 6 4 3 2 3 4 6 6 5 5
7 3 6 8 9 8 8 8 6 7 7 6 7 6 5 5 4 3 4 3 2 1 1 4 4 4 1 2 4 2 2 3 3 3 2 3 0 2 1 1 2 2 1 3 1 3 9 8 4 4 4 4 2 4 3 3 4 5 6 6 5 5
8 7 6 7 7 6 6 6 5 5 6 7 6 6 6 5 5 4 6 2 3 1 4 2 3 5 2 5 2 4 4 1 2 3 3 3 2 1 2 1 2 1 1 2 2 4 11 6 2 3 3 3 1 4 5 3 4 5 6 5 5 5
6 5 4 3 5 5 6 6 5 4 5 6 5 5 5 5 5 4 5 3 4 5 4 1 3 6 6 4 7 3 2 2 1 4 2 2 2 1 2 3 3 3 4 2 2 4 11 4 2 1 2 2 2 4 5 5 4 5 5 4 3 4
6 6 5 4 5 5 5 6 6 5 5 5 6 5 4 5 5 5 5 5 4 4 2 3 4 4 4 4 4 2 7 6 3 1 1 1 0 2 2 2 2 1 1 4 1 3 11 8 3 1 1 1 4 5 5 5 5 4 5 4 3 4
6 7 6 6 4 5 5 4 4 4 4 4 7 3 3 5 4 4 4 4 4 4 3 2 2 2 2 3 3 2 4 4 1 1 0 1 1 1 3 0 1 2 1 3 4 2 6 8 4 5 3 3 4 5 4 4 5 5 4 4 5 4
9 8 8 7 6 5 5 4 4 5 3 3 8 7 3 5 3 2 3 4 5 5 3 2 2 1 2 2 2 0 1 4 3 4 4 3 2 0 1 2 1 2 1 4 5 5 4 8 6 6 5 3 4 4 4 4 5 4 4 2 3 5
8 7 6 6 6 6 5 4 4 6 6 4 9 8 5 5 6 4 4 4 3 5 4 3 2 2 2 1 1 1 2 3 3 3 2 5 2 3 1 1 1 2 2 3 4 4 0 4 6 4 4 5 4 3 4 5 5 2 2 3 4 3
8 7 6 6 5 6 5 3 3 3 4 3 6 6 5 5 5 5 4 5 5 4 4 3 4 3 2 3 3 2 2 3 2 1 1 3 4 3 1 0 1 4 3 2 3 2 4 6 6 5 3 4 4 5 2 6 6 4 4 2 4 3
5 5 5 4 4 3 5 5 5 5 5 5 4 5 4 3 4 6 5 6 6 5 4 4 4 3 2 2 3 1 2 3 2 2 4 5 7 3 1 2 2 2 4 2 1 1 2 6 7 6 5 4 4 4 4 5 5 2 5 4 3 2
3 5 5 7 7 7 7 7 5 5 5 4 4 5 3 3 3 4 6 7 6 5 5 5 4 5 4 4 3 2 2 2 1 2 4 1 7 5 1 2 1 1 3 4 2 3 2 6 7 3 3 4 5 3 3 4 5 4 2 3 3 3
7 6 5 5 5 5 4 5 4 4 3 4 5 6 6 5 5 5 6 6 6 5 5 5 4 4 4 4 4 3 2 2 1 1 4 2 7 5 1 2 2 2 0 3 2 2 3 8 3 3 3 2 3 2 2 2 3 6 4 1 2 3
10 9 8 8 6 4 4 2 1 2 3 5 2 4 5 5 5 6 5 4 3 2 3 5 5 4 4 2 3 3 3 3 4 4 5 5 8 2 1 3 3 2 2 2 2 2 2 3 4 3 3 4 3 2 2 2 3 4 6 4 3 5
12 11 9 8 7 5 5 5 7 2 7 3 3 4 6 4 5 6 7 6 4 3 4 4 5 5 3 4 4 5 4 4 3 3 4 8 4 3 2 1 2 1 1 4 2 2 2 3 3 6 3 1 3 3 4 1 3 1 1 5 6 5
11 9 8 7 8 7 7 8 7 9 8 6 2 3 6 5 3 5 6 7 6 6 6 3 3 4 4 4 5 4 4 3 6 6 9 3 2 3 3 3 3 3 2 2 3 1 3 3 2 1 4 3 2 1 1 4 5 2 1 4 5 5
7 7 7 8 9 8 8 8 8 8 9 7 5 3 4 6 5 4 5 5 8 8 5 2 2 5 4 4 3 3 4 5 5 6 4 4 3 3 4 3 3 2 5 2 3 1 3 3 3 1 1 1 1 1 4 6 3 3 2 3 4 4
7 5 6 6 8 6 6 5 6 6 7 7 6 4 4 4 4 4 4 5 4 3 4 5 4 4 5 4 5 5 5 6 7 4 4 5 5 4 3 3 2 4 3 3 2 2 2 3 3 1 1 1 1 2 2 4 2 6 3 2 2 3
7 7 6 6 8 7 6 6 5 6 6 5 6 5 5 5 4 4 4 4 4 3 3 5 5 5 5 6 5 5 8 6 6 5 4 3 2 2 2 4 2 4 2 3 2 3 2 1 1 1 3 1 1 2 3 3 4 2 5 5 2 3
9 9 7 7 7 7 6 7 7 7 7 5 5 6 5 5 4 4 4 4 3 2 3 4 5 6 8 9 7 8 6 4 2 4 3 2 2 4 2 3 4 4 3 3 2 1 2 2 4 3 2 3 3 2 3 3 1 2 2 5 5 4
11 8 6 7 6 8 7 7 7 8 9 8 7 7 5 6 6 5 5 4 4 2 1 4 7 11 9 6 8 6 4 4 4 4 4 3 3 4 1 1 3 3 3 4 3 2 2 3 3 4 3 3 2 2 3 1 1 3 3 0 5 6
10 9 8 8 8 8 8 7 7 8 9 9 9 8 8 6 6 5 5 3 4 3 2 7 6 5 4 6 5 5 4 4 3 3 6 6 6 5 3 3 3 3 2 3 3 2 2 1 3 4 3 4 4 3 4 2 2 1 2 2 5 5
9 10 11 10 10 9 8 8 8 9 9 8 9 8 9 9 8 8 6 5 4 6 9 6 4 4 4 4 4 4 4 4 3 2 5 4 6 8 7 5 5 4 2 2 2 3 2 3 3 3 4 5 4 3 2 3 4 4 3 2 5 5
13 13 12 12 11 11 9 9 8 9 8 7 9 9 9 10 9 8 7 8 10 9 7 6 5 5 3 3 3 3 3 4 2 2 3 3 3 2 6 6 4 3 4 4 3 3 3 3 2 2 5 4 4 3 3 4 3 4 2 2 2 4
14 13 12 11 11 11 10 9 8 9 7 7 6 8 7 7 8 7 8 8 8 7 7 6 6 5 6 4 4 2 3 4 3 3 3 3 2 2 2 4 4 2 3 2 3 3 3 3 2 3 2 3 3 3 3 4 2 2 4 2 3 4
14 13 12 12 10 11 8 9 8 7 7 6 5 5 5 5 6 6 5 6 6 7 7 6 5 6 3 5 5 3 3 3 4 4 3 1 4 3 1 3 4 5 2 2 2 3 4 3 4 3 2 2 3 2 4 3 4 2 4 4 2 3
13 12 12 12 10 9 7 6 7 8 7 5 5 4 4 3 5 5 5 5 5 5 5 5 5 4 4 5 3 3 3 4 4 3 2 2 3 2 0 6 3 3 4 4 2 4 4 3 4 4 3 3 2 3 3 3 2 3 3 6 6 5
9 8 8 8 9 9 7 8 6 7 6 5 5 4 4 4 3 5 6 5 5 5 5 6 5 4 4 4 3 3 4 4 3 3 3 2 3 3 3 5 4 3 4 3 4 4 3 3 4 4 3 4 2 3 3 3 4 3 2 6 4 5
Wind_Direction
156 168 144 137 132 135 135 139 143 140 143 143 143 147 149 149 151 156 158 155 150 149 149 145 150 153 146 147 152 139 148 147 146 147 146 138 133 125 118 121 128 127 135 140 140 148 188 242 260 286 293 305 320 320 286 92 98 96 98 92 96 98
156 150 142 147 147 144 147 147 145 148 147 148 150 151 154 155 159 159 159 154 163 161 157 157 164 150 158 153 149 149 148 148 149 147 147 137 128 124 120 133 138 148 148 155 149 170 176 246 277 293 302 313 310 299 254 99 105 101 95 93 94 113
161 156 147 143 138 140 145 145 155 160 157 156 162 162 158 161 160 158 162 168 170 162 166 162 152 159 152 158 148 152 154 151 155 148 139 132 128 127 132 145 161 159 167 176 190 203 165 162 229 263 291 294 273 276 69 73 76 83 91 102 97 113
156 145 134 134 133 142 147 157 157 166 167 169 166 163 161 164 166 162 164 153 166 165 160 112 164 161 149 144 140 151 157 158 156 157 145 137 136 140 150 178 169 159 185 200 226 198 174 170 177 176 233 253 253 275 58 58 90 91 104 108 111 113
156 146 139 138 136 141 155 157 166 169 175 152 188 169 166 165 181 164 157 158 150 171 111 124 127 142 146 148 154 155 158 167 173 167 174 173 176 154 191 197 186 192 226 224 233 194 185 132 162 174 220 240 28 36 21 353 76 91 84 86 107 130
143 149 147 139 136 143 145 162 166 160 167 145 203 161 144 129 154 151 145 178 149 129 126 131 158 153 158 162 161 165 172 180 186 175 185 184 193 149 194 207 191 197 225 239 251 217 143 144 148 141 310 45 63 111 158 247 94 101 96 99 110 124
143 149 142 141 141 146 151 127 111 161 135 169 167 131 93 127 138 158 145 134 124 133 138 175 160 178 160 172 170 180 184 183 190 175 177 198 186 162 200 205 177 201 211 226 243 16 273 186 175 168 82 62 90 23 343 320 94 96 103 108 118 126
156 148 151 153 141 139 126 116 73 47 62 12 347 59 243 173 151 155 140 115 132 184 156 183 166 170 168 181 195 195 195 184 187 175 178 208 169 166 213 210 202 192 182 120 202 236 241 207 97 44 81 123 163 150 218 21 106 118 118 121 125 115
157 160 160 150 147 144 128 119 123 135 143 166 156 150 209 161 163 143 92 100 176 282 184 181 176 177 183 197 197 209 211 181 175 155 180 210 163 171 203 202 102 94 189 201 228 226 212 111 110 66 121 145 162 122 122 43 88 117 121 126 125 126
161 175 165 157 144 133 143 135 157 147 132 167 166 148 144 138 134 106 117 49 3 3 321 227 184 190 201 192 196 180 232 95 96 137 118 105 214 166 127 143 155 193 202 210 318 340 303 57 65 121 100 118 124 142 150 137 117 117 120 116 116 131
172 171 167 150 149 156 157 152 167 122 163 172 145 131 121 128 106 116 112 62 63 26 333 314 211 254 60 199 164 205 177 148 130 120 128 157 202 143 166 146 162 199 12 179 205 238 40 89 139 127 125 135 152 142 131 111 107 92 99 108 121 129
152 160 194 161 160 159 157 156 140 148 168 150 134 124 125 123 120 131 92 70 29 275 10 334 331 24 41 273 205 118 254 155 130 138 157 115 215 107 123 119 75 49 348 346 20 38 72 84 95 136 120 114 95 117 130 101 90 93 102 116 122 118
165 176 200 163 154 153 148 140 145 148 160 137 133 129 132 126 116 130 106 130 216 132 18 284 212 136 280 290 0 42 350 43 68 103 90 121 140 181 100 28 125 140 212 219 74 57 81 79 101 153 115 122 128 115 110 105 102 96 109 123 123 134
150 163 178 158 149 146 136 133 156 153 138 131 123 111 111 117 121 123 120 184 208 130 195 244 32 60 87 30 344 353 247 325 47 54 49 143 158 104 130 188 195 187 204 133 69 121 100 103 284 2 79 105 115 91 106 110 106 95 106 110 108 72
149 144 154 158 154 130 132 131 141 138 142 134 121 100 118 110 124 139 143 167 165 111 80 57 44 70 94 105 126 84 324 291 72 93 123 253 201 165 175 213 169 181 126 94 69 75 113 130 152 24 56 179 107 110 106 111 111 111 122 125 103 84
151 150 162 164 138 126 126 127 121 122 126 136 100 95 190 114 123 124 138 146 125 109 108 87 77 65 113 129 126 144 172 236 284 35 39 1 311 186 178 12 73 115 235 152 141 56 107 124 153 159 152 112 113 119 121 129 127 127 124 127 131 131
160 165 166 158 144 133 129 134 130 120 194 161 121 145 204 121 114 157 165 131 122 112 128 126 117 79 60 113 125 343 22 37 5 42 353 311 280 60 183 126 182 192 106 72 78 107 145 141 179 135 138 121 118 132 119 102 108 109 122 130 104 107
155 164 170 150 145 141 142 141 137 163 179 198 122 139 183 144 156 162 146 126 150 132 140 143 125 133 114 133 104 135 68 47 19 38 27 308 6 297 87 92 101 74 75 75 83 133 149 119 101 125 138 127 111 106 100 121 83 45 97 108 96 104
156 166 159 152 140 141 134 137 139 158 147 93 115 136 182 155 138 145 139 144 150 145 162 124 191 151 167 167 119 69 108 79 44 61 190 4 312 288 120 86 48 92 95 105 107 150 146 119 138 129 120 99 110 101 101 84 125 135 89 105 122 128
148 155 141 121 143 148 156 172 169 177 188 156 106 138 142 155 125 133 146 150 156 162 147 148 179 164 200 134 102 143 140 135 195 87 46 34 284 291 127 138 148 173 117 94 67 91 84 90 79 67 69 63 69 76 105 117 117 110 125 149 131 99
122 166 165 173 181 177 177 175 175 198 193 130 79 114 143 172 154 149 158 157 160 158 146 169 179 186 170 138 134 172 105 135 71 114 96 195 261 239 261 118 177 79 143 134 137 112 89 90 95 78 65 86 75 55 62 72 105 128 94 51 74 112
160 189 181 191 182 185 176 184 191 209 165 125 144 142 162 161 167 159 162 148 150 152 156 169 183 164 169 162 148 148 124 157 205 119 79 248 233 247 185 165 159 115 98 130 105 101 118 115 129 150 136 82 65 51 57 120 112 99 111 185 133 124
168 176 187 184 175 176 171 155 109 331 84 79 164 164 131 144 145 143 134 124 117 112 183 177 173 147 154 160 141 148 161 179 195 154 127 237 219 176 192 167 163 157 139 88 101 114 123 100 122 155 146 134 138 115 24 47 101 116 134 169 121 103
169 174 177 174 170 161 139 125 103 238 80 114 122 95 118 135 117 114 137 145 143 182 215 207 172 148 145 161 173 191 183 188 197 172 185 210 192 151 133 234 143 136 143 133 124 134 113 132 148 161 140 235 134 141 131 155 116 2 78 88 103 108
165 166 166 161 139 140 143 145 144 128 127 117 122 145 125 120 119 118 130 147 163 187 205 201 154 136 156 173 183 192 191 194 193 176 212 188 149 160 180 191 179 148 128 106 88 138 122 123 109 317 139 138 146 169 136 140 131 74 20 99 103 138
158 157 165 170 153 158 163 153 152 149 143 144 162 174 137 147 157 158 149 143 164 177 171 132 157 159 176 182 193 200 191 201 219 187 154 167 165 184 217 163 159 150 107 105 123 94 130 115 134 141 320 325 75 135 139 154 159 114 104 91 111 99
160 160 171 156 147 149 152 152 149 143 133 144 154 171 132 137 138 136 128 141 126 109 154 164 165 203 182 188 192 203 214 184 220 159 173 181 181 178 182 132 143 93 111 128 138 115 149 137 124 156 207 62 21 336 88 131 121 127 116 54 43 106
159 169 184 154 153 160 160 138 130 126 122 135 155 148 135 127 121 130 124 101 102 130 184 170 185 210 201 192 191 207 224 188 175 162 167 170 169 136 88 121 89 92 97 97 110 138 138 172 152 90 141 109 94 93 70 47 109 147 132 134 113 83
150 163 183 154 161 162 155 151 158 138 144 148 140 131 129 122 115 117 110 107 128 158 167 209 193 201 219 189 163 208 200 156 154 160 145 133 138 124 120 112 115 106 119 120 105 129 150 167 124 172 154 119 124 77 53 37 17 70 120 127 128 145
146 158 164 160 176 167 170 163 161 151 148 146 144 133 137 137 130 151 150 142 135 118 306 235 194 194 189 176 171 175 163 158 156 153 157 123 95 84 74 137 116 136 144 139 152 175 175 128 120 155 134 137 113 113 66 27 2 88 64 63 145 154
163 152 164 173 178 181 173 161 146 152 157 146 145 139 138 144 143 147 134 158 142 112 256 237 192 166 166 165 163 160 129 149 154 164 128 133 138 152 145 117 115 124 160 149 156 172 144 128 102 135 121 121 146 168 160 144 152 143 142 160 123 135
171 156 170 174 180 175 175 169 157 162 157 150 148 151 152 152 161 155 162 169 155 165 204 202 159 150 153 152 138 147 172 131 163 149 133 166 171 153 151 145 152 149 171 170 186 163 157 138 166 141 125 143 174 194 129 140 133 152 143 139 124 134
174 167 172 173 173 172 174 169 161 155 150 158 156 156 158 157 162 157 170 171 170 184 174 154 164 147 142 149 132 127 134 128 96 82 132 131 22 72 121 147 141 160 153 174 194 158 147 145 155 151 138 157 161 165 142 94 127 142 124 134 122 136
172 171 170 167 171 172 174 163 161 147 150 154 158 151 155 155 153 161 174 169 163 153 153 154 166 150 172 158 123 121 100 106 121 85 63 55 106 84 109 128 128 154 115 165 157 148 129 125 130 80 88 124 111 116 72 88 106 115 132 136 138 143
172 171 164 166 170 175 171 158 143 143 144 157 143 130 136 146 150 173 166 157 154 151 154 162 152 146 148 110 104 111 101 100 91 86 89 104 67 64 326 86 96 90 101 54 119 130 127 148 134 132 112 89 120 104 125 147 147 141 138 157 150 151
178 170 164 163 169 165 156 135 146 147 151 141 108 111 128 161 172 176 155 135 118 114 117 113 108 111 98 103 116 119 121 96 100 113 134 134 138 139 134 96 113 141 137 145 158 122 137 142 136 137 140 135 148 137 148 152 165 174 186 146 218 148
165 140 167 162 164 157 148 139 147 143 139 125 127 139 154 192 186 130 116 111 116 109 102 102 107 114 120 132 153 140 107 105 114 135 142 169 118 134 131 119 136 150 131 163 158 137 148 136 131 135 149 148 168 140 189 158 176 190 185 159 148 126